SENTINEL-3B (43437 NORAD) Tracking and Keplerian Element Data

This shows tracking and keplerian element data for the satellite.

Feedback or suggestion? Click here.




ElementValue
Catalog43437
NameSENTINEL-3B
Epoch Orbit17671
Epoch Day259.10598211
Epoch Year2021
RAAN325.3241
Inclination98.6217
Eccentricity8.47E-05
Argument of Perigee80.7924
Mean Anonmoly279.3352
Mean Motion14.26739285
Decay Rate-9E-08
L11 43437U 18039A 21259.10598211 -.00000009 00000-0 14118-4 0 9997
L22 43437 98.6217 325.3241 0000847 80.7924 279.3352 14.26739285176715

Live tracking and technical data element details for SENTINEL-3B (NORAD 43437). SENTINEL-3B can be tracked NOW for your location showing map with azimuth and elevation plus other details from your city location.

Track the satellite on the map from your city or location and see movement details for azimuth, elevation, latitude, longitude, range, height, and movement on the map or in text.







IsCatalogInMostPopularTable: catalog: 43437, numindb: 676
Update: records affected: 1



GetName: 43437 SENTINEL-3B

Hit Count: updated at: Sat, 18 Sep 2021 10:47:32 GMT